Ogden Hill AFB, UT

8:27 AM MDT on April 30, 2017 (GMT -0600)
Hill Air Force Base

Weather History for KHIF - October, 2011

Change the Weather History Date:

Friday, October 7, 2011

  Actual Average Record
Temperature  
Mean Temperature 40 °F -  
Max Temperature 43 °F 64 °F 77 °F (2003)
Min Temperature 37 °F 43 °F 34 °F (2012)
Degree Days  
Heating Degree Days 25    
Moisture  
Dew Point 35 °F    
Average Humidity 80    
Maximum Humidity 93    
Minimum Humidity 66    
Precipitation  
Precipitation 0.19 in - - ()
Sea Level Pressure  
Sea Level Pressure 29.98 in    
Wind  
Wind Speed 9 mph (SSE)    
Max Wind Speed 21 mph    
Max Gust Speed 26 mph    
Visibility 9 miles    
Events Rain    
Averages and records for this station are not official NWS values.
T = Trace of Precipitation, MM = Missing Value Source: NWS Daily Summary

Daily Weather History Graph

Daily Weather History Graph

Search for Another Location

Airport or City:

Trip Planner

Search our weather history database for the weather conditions in past years. The results will help you decide how hot, cold, wet, or windy it might be!

Date:

Astronomy

Oct. 07, 2011 Rise Set
Actual Time 7:30 AM MDT 7:00 PM MDT
Civil Twilight 7:03 AM MDT 7:27 PM MDT
Nautical Twilight 6:31 AM MDT 7:59 PM MDT
Astronomical Twilight 5:59 AM MDT 8:31 PM MDT
Moon 4:46 PM MDT (10/7) 3:21 AM MDT (10/7)
Length of Visible Light 12h 24m
Length of Day
11h 29m
Waxing Gibbous, 84% of the Moon is Illuminated
Oct 7
Waxing Gibbous
Oct 11
Full
Oct 19
Last Quarter
Oct 26
New
Nov 2
First Quarter

Hourly Weather History & Observations

Time (MDT) Temp. Windchill Dew Point Humidity Pressure Visibility Wind Dir Wind Speed Gust Speed Precip Events Conditions
12:00 AM 41.0 °F 35.2 °F 35.6 °F 81% 29.85 in 10.0 mi SE 9.2 mph - N/A   Overcast
12:55 AM 40.8 °F 32.9 °F 35.2 °F 80% 29.86 in 10.0 mi SE 15.0 mph - N/A   Overcast
1:55 AM 41.4 °F 35.7 °F 35.1 °F 78% 29.89 in 10.0 mi South 9.2 mph - N/A   Mostly Cloudy
2:03 AM 41.0 °F 36.4 °F 35.6 °F 81% 29.89 in 10.0 mi South 6.9 mph - N/A   Mostly Cloudy
2:06 AM 41.0 °F 34.7 °F 35.6 °F 81% 29.90 in 9.0 mi South 10.4 mph - N/A Rain Light Rain
2:11 AM 41.0 °F 33.5 °F 33.8 °F 76% 29.90 in 7.0 mi SSW 13.8 mph 19.6 mph N/A Rain Light Rain
2:12 AM 41.0 °F 33.9 °F 33.8 °F 76% 29.89 in 6.0 mi SSW 12.7 mph 19.6 mph N/A Rain Light Rain
2:18 AM 39.2 °F 29.6 °F 33.8 °F 81% 29.89 in 6.0 mi South 19.6 mph 24.2 mph N/A Rain Light Rain
2:30 AM 39.2 °F 29.3 °F 33.8 °F 81% 29.89 in 9.0 mi South 20.7 mph 26.5 mph N/A Rain Light Rain
2:38 AM 39.2 °F 32.0 °F 32.0 °F 75% 29.90 in 4.0 mi WSW 11.5 mph 26.5 mph N/A Rain Rain
2:40 AM 39.2 °F 33.6 °F 32.0 °F 75% 29.91 in 3.0 mi WNW 8.1 mph - N/A Rain Rain
2:44 AM 39.2 °F 32.5 °F 33.8 °F 81% 29.91 in 4.0 mi West 10.4 mph - N/A Rain Light Rain
2:45 AM 39.2 °F 32.5 °F 33.8 °F 81% 29.91 in 5.0 mi West 10.4 mph - N/A Rain Light Rain
2:55 AM 39.2 °F - 33.4 °F 80% 29.91 in 8.0 mi Calm Calm - 0.13 in Rain Light Rain
3:55 AM 37.8 °F 31.3 °F 35.1 °F 90% 29.93 in 10.0 mi NW 9.2 mph - 0.03 in Rain Light Rain
4:19 AM 37.4 °F 32.8 °F 35.6 °F 93% 29.93 in 10.0 mi North 5.8 mph - N/A   Light Drizzle
4:21 AM 37.4 °F 32.8 °F 35.6 °F 93% 29.91 in 10.0 mi NNE 5.8 mph - N/A   Light Drizzle
4:40 AM 37.4 °F 32.8 °F 35.6 °F 93% 29.93 in 10.0 mi ENE 5.8 mph - N/A Rain Light Rain
4:43 AM 37.4 °F 32.1 °F 35.6 °F 93% 29.93 in 10.0 mi ENE 6.9 mph - N/A Rain Light Rain
4:46 AM 37.4 °F 32.1 °F 35.6 °F 93% 29.93 in 10.0 mi ENE 6.9 mph - N/A   Mostly Cloudy
4:50 AM 37.4 °F 32.1 °F 35.6 °F 93% 29.93 in 10.0 mi ENE 6.9 mph - N/A   Mostly Cloudy
4:55 AM 37.9 °F 34.4 °F 35.2 °F 90% 29.93 in 10.0 mi ENE 4.6 mph - 0.01 in   Scattered Clouds
5:18 AM 37.4 °F 32.8 °F 35.6 °F 93% 29.91 in 10.0 mi ENE 5.8 mph - N/A   Mostly Cloudy
5:35 AM 39.2 °F 35.0 °F 35.6 °F 87% 29.91 in 10.0 mi ENE 5.8 mph - N/A   Scattered Clouds
5:41 AM 39.2 °F 35.9 °F 35.6 °F 87% 29.91 in 10.0 mi ENE 4.6 mph - N/A   Mostly Cloudy
5:55 AM 39.2 °F 37.0 °F 34.9 °F 84% 29.91 in 10.0 mi ENE 3.5 mph - N/A   Mostly Cloudy
6:55 AM 40.8 °F 36.2 °F 34.9 °F 79% 29.92 in 10.0 mi SSE 6.9 mph - N/A   Overcast
7:55 AM 40.8 °F 35.0 °F 34.5 °F 78% 29.93 in 10.0 mi SSE 9.2 mph - N/A   Overcast
8:55 AM 41.4 °F 34.7 °F 34.0 °F 75% 29.96 in 10.0 mi SE 11.5 mph - N/A   Overcast
9:55 AM 41.7 °F 36.1 °F 33.4 °F 72% 29.98 in 10.0 mi SSE 9.2 mph - N/A   Overcast
10:55 AM 42.4 °F 36.5 °F 34.3 °F 73% 29.99 in 10.0 mi SSE 10.4 mph - N/A   Overcast
11:55 AM 43.0 °F 38.2 °F 33.4 °F 69% 30.01 in 10.0 mi South 8.1 mph - N/A   Overcast
12:11 PM 42.8 °F 37.5 °F 33.8 °F 70% 30.02 in 10.0 mi SW 9.2 mph - N/A   Light Drizzle
12:20 PM 41.0 °F 35.8 °F 33.8 °F 76% 30.02 in 10.0 mi SSW 8.1 mph - N/A   Overcast
12:39 PM 42.8 °F 38.0 °F 33.8 °F 70% 30.02 in 10.0 mi SW 8.1 mph - N/A   Overcast
12:45 PM 42.8 °F 38.6 °F 33.8 °F 70% 30.02 in 10.0 mi SW 6.9 mph - N/A   Overcast
12:55 PM 42.4 °F 38.1 °F 34.2 °F 72% 30.02 in 10.0 mi SW 6.9 mph - 0.00 in   Overcast
1:55 PM 43.2 °F 39.7 °F 32.5 °F 66% 30.00 in 10.0 mi South 5.8 mph - N/A   Overcast
2:41 PM 42.8 °F 38.6 °F 33.8 °F 70% 30.01 in 10.0 mi SSE 6.9 mph - N/A   Overcast
2:55 PM 42.1 °F 36.6 °F 34.5 °F 75% 30.01 in 10.0 mi SE 9.2 mph - N/A   Overcast
3:16 PM 42.8 °F 37.0 °F 33.8 °F 70% 30.02 in 10.0 mi SSE 10.4 mph - N/A   Overcast
3:55 PM 42.3 °F 36.8 °F 33.6 °F 71% 30.04 in 10.0 mi South 9.2 mph - N/A   Overcast
4:55 PM 42.1 °F 38.4 °F 35.1 °F 76% 30.05 in 10.0 mi South 5.8 mph - N/A   Overcast
5:55 PM 41.7 °F 38.8 °F 36.0 °F 80% 30.04 in 10.0 mi SSE 4.6 mph - N/A   Overcast
6:15 PM 42.8 °F 39.3 °F 35.6 °F 76% 30.04 in 10.0 mi ESE 5.8 mph - N/A   Overcast
6:53 PM 41.0 °F 35.2 °F 35.6 °F 81% 30.05 in 10.0 mi SE 9.2 mph - N/A   Overcast
6:55 PM 41.7 °F 36.7 °F 35.4 °F 78% 30.05 in 10.0 mi SE 8.1 mph - N/A   Overcast
7:33 PM 41.0 °F 35.8 °F 35.6 °F 81% 30.07 in 10.0 mi SE 8.1 mph - N/A   Overcast
7:34 PM 41.0 °F 36.4 °F 35.6 °F 81% 30.07 in 10.0 mi SE 6.9 mph - N/A   Overcast
7:36 PM 41.0 °F 37.1 °F 35.6 °F 81% 30.07 in 10.0 mi SE 5.8 mph - N/A   Overcast
7:55 PM 41.7 °F 36.7 °F 35.8 °F 79% 30.08 in 10.0 mi SE 8.1 mph - N/A   Overcast
8:43 PM 41.0 °F 34.7 °F 35.6 °F 81% 30.08 in 10.0 mi SSE 10.4 mph - N/A   Overcast
8:55 PM 41.0 °F 34.7 °F 35.6 °F 81% 30.08 in 10.0 mi SE 10.4 mph - N/A   Overcast
9:06 PM 41.0 °F 35.2 °F 35.6 °F 81% 30.08 in 10.0 mi SE 9.2 mph - N/A   Overcast
9:55 PM 40.6 °F 33.8 °F 36.0 °F 83% 30.08 in 10.0 mi SE 11.5 mph - N/A   Overcast
10:55 PM 40.5 °F 35.1 °F 36.3 °F 85% 30.09 in 10.0 mi SE 8.1 mph - N/A   Overcast
11:12 PM 41.0 °F 35.2 °F 37.4 °F 87% 30.09 in 10.0 mi SE 9.2 mph - N/A   Overcast
11:30 PM 41.0 °F 36.4 °F 37.4 °F 87% 30.09 in 7.0 mi SE 6.9 mph - N/A Rain Light Rain
11:55 PM 39.7 °F 32.7 °F 37.0 °F 90% 30.08 in 6.0 mi SE 11.5 mph - 0.02 in Rain Light Rain